Weather History for Cross City, FL

Change the Weather History Date:

Saturday, December 8, 2012

  Actual Average Record
Temperature  
Mean Temperature 62 °F 56 °F  
Max Temperature 68 °F 68 °F 83 °F (2013)
Min Temperature 56 °F 45 °F 21 °F (2010)
Degree Days  
Heating Degree Days 3 9  
Month to date heating degree days 9 68  
Since 1 July heating degree days 217 236  
Cooling Degree Days 0 1  
Month to date cooling degree days 7 8  
Year to date cooling degree days 2804 2610  
Growing Degree Days 10 (Base 50)    
Moisture  
Dew Point 60 °F    
Average Humidity 94    
Maximum Humidity 100    
Minimum Humidity 87    
Precipitation  
Precipitation 0.01 in 0.10 in 1.06 in (2005)
Month to date precipitation 0.02 0.75  
Year to date precipitation 57.71 46.59  
Sea Level Pressure  
Sea Level Pressure 30.03 in    
Wind  
Wind Speed 2 mph (East)    
Max Wind Speed 7 mph    
Max Gust Speed 21 mph    
T = Trace of Precipitation, MM = Missing Value Source: NWS Daily Summary

Daily Weather History Graph

Daily Weather History Graph

Search for Another Location

Airport:

Trip Planner

Search our weather history database for the weather conditions in past years. The results will help you decide how hot, cold, wet, or windy it might be!

Date:

Astronomy

Dec. 08, 2012 Rise Set
Actual Time 7:15 AM EST 5:33 PM EST
Civil Twilight 6:49 AM EST 5:59 PM EST
Nautical Twilight 6:19 AM EST 6:29 PM EST
Astronomical Twilight 5:50 AM EST 6:58 PM EST
Moon 1:58 AM EST (12/8) 1:46 PM EST (12/8)
Length of Visible Light 11h 10m
Length of Day
10h 18m
Waning Crescent, 28% of the Moon is Illuminated
Dec 8
Waning Crescent
Dec 13
New
Dec 20
First Quarter
Dec 28
Full
Jan 4
Last Quarter

Hourly Weather History & Observations

Time (EST) Temp. Dew Point Humidity Pressure Visibility Wind Dir Wind Speed Gust Speed Precip Events Conditions
12:53 AM 59.0 °F 57.9 °F 96% 30.01 in - ENE 3.5 mph - N/A   Unknown
1:53 AM 57.9 °F 57.9 °F 100% 30.01 in - ENE 3.5 mph - N/A   Unknown
2:53 AM 59.0 °F 57.9 °F 96% 30.01 in - Variable 4.6 mph - N/A   Unknown
3:53 AM 59.0 °F 59.0 °F 100% 30.01 in - Calm Calm - N/A   Unknown
4:53 AM 60.1 °F 59.0 °F 96% 30.01 in - Calm Calm - N/A   Unknown
5:53 AM 60.1 °F 59.0 °F 96% 30.01 in - ENE 3.5 mph - 0.01 in   Unknown
6:53 AM 60.1 °F 59.0 °F 96% 30.02 in - Calm Calm - N/A   Unknown
7:53 AM 60.1 °F 59.0 °F 96% 30.04 in - Calm Calm - N/A   Unknown
8:53 AM 60.1 °F 60.1 °F 100% 30.05 in - ENE 3.5 mph - N/A   Unknown
9:53 AM 61.0 °F 61.0 °F 100% 30.07 in - East 4.6 mph - N/A   Unknown
10:53 AM 62.1 °F 62.1 °F 100% 30.07 in - Calm Calm - N/A   Unknown
11:53 AM 63.0 °F 62.1 °F 97% 30.05 in - ESE 4.6 mph - N/A   Unknown
12:53 PM 64.9 °F 62.1 °F 90% 30.03 in - SE 3.5 mph - N/A   Unknown
1:53 PM 66.0 °F 63.0 °F 90% 30.01 in - Calm Calm - N/A   Unknown
2:53 PM 66.9 °F 63.0 °F 87% 30.01 in - Calm Calm - N/A   Unknown
3:53 PM 66.9 °F 63.0 °F 87% 30.01 in - ESE 3.5 mph - N/A   Unknown
4:53 PM 66.9 °F 63.0 °F 87% 30.02 in - Calm Calm - N/A   Unknown
5:53 PM 66.9 °F 63.0 °F 87% 30.02 in - SE 3.5 mph - N/A   Unknown
6:53 PM 66.9 °F 63.0 °F 87% 30.03 in - Calm Calm - N/A   Unknown
7:53 PM 63.0 °F 61.0 °F 93% 30.05 in - Calm Calm - N/A   Unknown
8:53 PM 59.0 °F 57.9 °F 96% 30.05 in - Calm Calm - N/A   Unknown
9:53 PM 57.0 °F 55.0 °F 93% 30.06 in - Calm Calm - N/A   Unknown
10:53 PM 55.9 °F 55.0 °F 97% 30.06 in - Calm Calm - N/A   Unknown
11:53 PM 57.0 °F 55.9 °F 96% 30.06 in - Calm Calm - N/A   Unknown